Location: Bieujac
(44.5398°N, 0.1549°W)
Time: 13:57:19
(UTC+00:00)

STARLINK-35 - Pass Details

Date: 17 November 2019
Orbit: 529 x 531 km, 53.0° (Epoch: 14 December)

Event Time Altitude Azimuth Distance (km) Brightness Sun altitude
Exits shadow 05:58:27 - 242° (WSW) 1,996 6.0 -10.9°
Reaches altitude 10° 05:58:59 10° 243° (WSW) 1,784 5.8 -10.8°
Maximum altitude 06:03:00 73° 328° (NNW) 571 3.5 -10.1°
Drops below altitude 10° 06:07:11 10° 54° (NE) 1,843 6.8 -9.4°
Sets 06:09:28 0° 57° (ENE) 2,760 7.8 -9.0°
